User: anonymous   Login
Location: Unspecified
(0.0000°N, 0.0000°E)
Time: 22:13:02
(UTC+00:00)
Language:

NNS O-23 - Orbit

View from above orbital plane
View from above orbital plane
View from above satellite
View from above satellite

Ground track
Ground track

The orbit data is extracted from the following two-line orbital elements,

1 19070U 88033A   24107.75450352  .00000176  00000-0  33434-3 0  9998
2 19070  90.3202 357.7411 0191446  63.0837   2.4977 13.27639664742251
Epoch (UTC): 16 April 2024 18:06:29
Eccentricity: 0.0191446
inclination: 90.3202°
perigee height: 1011 km
apogee height: 1300 km
right ascension of ascending node: 357.7411°
argument of perigee: 63.0837°
revolutions per day: 13.27639664
mean anomaly at epoch: 2.4977°
orbit number at epoch: 74225

The dashed part of the orbit path shows where the satellite is in the earth's shadow,  

DLR